User: anonymous   Login
Location: NJAA Observatory
(40.6819°N, 74.8979°W)
Time: 13:14:41
(UTC-05:00)
Language:

Cosmos 2237 Rocket - Orbit

View from above orbital plane
View from above orbital plane
View from above satellite
View from above satellite

Ground track
Ground track

The orbit data is extracted from the following two-line orbital elements,

1 22566U 93016B   14330.87159805 -.00000237  00000-0 -97960-4 0  2132
2 22566 071.0086 225.8944 0007928 117.4544 242.7386 14.14870623119257
Epoch (UTC): 26 November 2014 20:55:06
Eccentricity: 0.0007928
inclination: 71.0086°
perigee height: 837 km
apogee height: 848 km
right ascension of ascending node: 225.8944°
argument of perigee: 117.4544°
revolutions per day: 14.14870623
mean anomaly at epoch: 242.7386°
orbit number at epoch: 11925

The dashed part of the orbit path shows where the satellite is in the earth's shadow,  

DLR